This is the latest recevied weather packets stored in our database for station/object DC4AT. If no packets are shown the sender has not sent any weather packets the latest 10 day(s).
| Time | Temp. | Humidity | Pressure | Rain* | Wind** | Luminosity | Snow |
|---|---|---|---|---|---|---|---|
| 1777664625 | 16.11° C | 54% | 1024.7 hPa | 0 mm | - | 0 W/m² | - |
| 1777663425 | 16.11° C | 54% | 1024.8 hPa | 0 mm | - | 0 W/m² | - |
| 1777660425 | 17.78° C | 53% | 1024.7 hPa | 0 mm | - | 9 W/m² | - |
| 1777659825 | 18.33° C | 52% | 1024.7 hPa | 0 mm | - | 21 W/m² | - |
| 1777658625 | 18.89° C | 49% | 1024.8 hPa | 0 mm | - | 53 W/m² | - |
| 1777656226 | 20° C | 46% | 1024.8 hPa | 0 mm | - | 146 W/m² | - |
| 1777655625 | 20° C | 44% | 1024.9 hPa | 0 mm | - | 172 W/m² | - |
| 1777655026 | 20.56° C | 44% | 1024.9 hPa | 0 mm | - | 195 W/m² | - |
| 1777654426 | 20.56° C | 41% | 1025 hPa | 0 mm | - | 220 W/m² | - |
| 1777653226 | 21.11° C | 41% | 1025.2 hPa | 0 mm | - | 267 W/m² | - |
| 1777652626 | 21.11° C | 40% | 1025.4 hPa | 0 mm | - | 290 W/m² | - |
| 1777652026 | 21.11° C | 38% | 1025.4 hPa | 0 mm | - | 53 W/m² | - |
| 1777651426 | 21.11° C | 38% | 1025.4 hPa | 0 mm | - | 218 W/m² | - |
| 1777650826 | 21.11° C | 37% | 1025.6 hPa | 0 mm | - | 366 W/m² | - |
| 1777650226 | 21.11° C | 38% | 1025.7 hPa | 0 mm | - | 392 W/m² | - |
| 1777649626 | 21.11° C | 37% | 1025.9 hPa | 0 mm | - | 46 W/m² | - |
| 1777649026 | 21.11° C | 40% | 1026 hPa | 0 mm | - | 81 W/m² | - |
| 1777648426 | 21.11° C | 37% | 1026.1 hPa | 0 mm | - | 455 W/m² | - |
| 1777647826 | 21.11° C | 39% | 1026.2 hPa | 0 mm | - | 330 W/m² | - |
| 1777647226 | 20.56° C | 38% | 1026.2 hPa | 0 mm | - | 501 W/m² | - |
| 1777646026 | 20.56° C | 39% | 1026.4 hPa | 0 mm | - | 540 W/m² | - |
| 1777645426 | 20.56° C | 39% | 1026.5 hPa | 0 mm | - | 561 W/m² | - |
| 1777644826 | 20.56° C | 42% | 1026.6 hPa | 0 mm | - | 580 W/m² | - |
| 1777644226 | 20.56° C | 39% | 1026.7 hPa | 0 mm | - | 601 W/m² | - |
| 1777643626 | 20.56° C | 40% | 1026.8 hPa | 0 mm | - | 617 W/m² | - |
* Rain latest hour (hover to see other rain measurements)
** Current wind speed in m/s (hover to see current wind gust speed)